Location: Stara Lesna
(49.1528°N, 20.2911°E)
Time: 10:11:49
(UTC+02:00)

Okean 1-7 - Pass Details

Date: 13 July 2020
Orbit: 592 x 618 km, 82.5° (Epoch: 05 August)

Event Time Altitude Azimuth Distance (km) Brightness Sun altitude
Rises 02:58:49 0° 340° (NNW) 2,905 7.1 -13.0°
Reaches altitude 10° 03:01:18 10° 328° (NNW) 1,994 6.0 -12.8°
Maximum altitude 03:05:00 27° 272° (W) 1,206 4.3 -12.5°
Enters shadow 03:07:16 18° 228° (SW) 1,545 4.5 -12.3°
